Skip Page Navigation
NASA JPL Caltech
NASA Logo - Jet Propulsion Laboratory + View the NASA Portal
+ Center for Near-Earth Object Studies
JPL Home Earth Solar System Stars & Galaxies Technology
JPL Solar System Dynamics
BODIES ORBITS EPHEMERIDES TOOLS PHYSICAL DATA DISCOVERY FAQ SITE MAP
IMPORTANT: The SSD Announcement email list is now available. Major changes are coming in the near future, including possible hostname and/or URL changes. To be notified of such changes, subscribe to this email list.

Please visit this page for more details.


JPL Small-Body Database Browser
Search: [ help ]  
136534 (2006 KK16)
Classification: Main-belt Asteroid          SPK-ID: 2136534
Ephemeris | Orbit Diagram | Orbital Elements | Mission Design | Physical Parameters | Discovery Circumstances | Close-Approach Data ]

[ show orbit diagram ]
Orbital Elements at Epoch 2458600.5 (2019-Apr-27.0) TDB
Reference: JPL 18 (heliocentric ecliptic J2000)
 Element Value Uncertainty (1-sigma)   Units 
e .1043027334554525 5.5778e-08  
a 3.106100611036187 4.0992e-08 au
q 2.782125826917461 1.6951e-07 au
i 22.66293780017655 5.8224e-06 deg
node 104.7824492499158 1.497e-05 deg
peri 105.0132627199935 2.9931e-05 deg
M 146.6003136757127 2.6636e-05 deg
tp 2457786.256867701934
(2017-Feb-01.75686770)
0.00014471 TDB
period 1999.501367205235
5.47
3.9582e-05
1.084e-07
d
yr
n .1800448881428789 3.5642e-09 deg/d
Q 3.430075395154913 4.5268e-08 au
  Orbit Determination Parameters
   # obs. used (total)      445  
   data-arc span      7175 days (19.64 yr)  
   first obs. used      2000-03-10  
   last obs. used      2019-11-01  
   planetary ephem.      DE431  
   SB-pert. ephem.      SB431-N16  
   condition code      0  
   norm. resid. RMS      .59289  
   source      ORB  
   producer      Otto Matic  
   solution date      2019-Nov-07 16:04:00  

Additional Information
 Earth MOID = 1.86382 au 
 Jupiter MOID = 1.91772 au 
 T_jup = 3.093 
[ show covariance matrix ]

Ephemeris | Orbit Diagram | Orbital Elements | Mission Design | Physical Parameters | Discovery Circumstances | Close-Approach Data ]

Physical Parameter Table
Parameter Symbol Value Units Sigma Reference Notes
absolute magnitude H 14.6   n/a MPO417721  
diameter diameter 7.024 km 0.220 urn:nasa:pds:neowise_diameters_albedos::2.0[mainbelt] (http://adsabs.harvard.edu/abs/2011ApJ...741...68M)  
geometric albedo albedo 0.062   0.010 urn:nasa:pds:neowise_diameters_albedos::2.0[mainbelt] (http://adsabs.harvard.edu/abs/2011ApJ...741...68M)  

136534 (2006 KK16)          Discovered 2006-May-20 by LONEOS at Anderson Mesa
Reference: 20060907/Numbers.arcLast Updated: 2006-09-10

[ show close-approach data ]
Ephemeris | Orbit Diagram | Orbital Elements | Mission Design | Physical Parameters | Discovery Circumstances | Close-Approach Data ]
ABOUT SSD CREDITS/AWARDS PRIVACY/COPYRIGHT GLOSSARY LINKS
FirstGov
(server date/time)  
NASA Home Page
Site Manager:   Ryan S. Park
Webmaster  Alan B. Chamberlin